Volver al catálogo

FENGYUN 1C DEB

ActivoPO
NORAD 29771·DEBRIS·🇨🇳 China

Lanzado May 10, 1999 desde Taiyuan Satellite Launch Center

Loading…

Próximos Pases (próximas 24 horas)

TLE

ActualizadoSource: Space-Track

Época: Sep 14, 2026, 13:59 UTC

1 29771U 99025BM  26257.58314589  .00108903  00000-0  56238-2 0  9993
2 29771  99.6099 169.0487 0010503 337.9264  22.1508 15.15758865372403

Sigue FENGYUN 1C DEB en tiempo real con AllMySat

Download on the App Store